Location: Gr�n
(50.0333°N, 10.2333°E)
Time: 08:33:30
(UTC+00:00)

Daily predictions for brighter satellites

Satellite Brightness Start Highest point End
(mag) Time Altitude Azimuth Time Altitude Azimuth Time Altitude Azimuth
Cosmos 2082 Rocket 2.5 19:53:24 10° NNW 19:59:07 72° WSW 20:04:47 10° SSE
IGS 5A 3.8 19:56:24 10° SSE 20:00:25 51° ENE 20:04:29 10° N
Cosmos 1420 Rocket 4.1 19:56:01 10° SSW 20:01:14 84° WNW 20:06:27 10° NNE
STARLINK-1232 4.2 19:57:13 10° W 20:01:21 63° N 20:05:27 10° ENE
Cosmos 1452 Rocket 3.5 19:56:15 10° SSW 20:01:30 72° ESE 20:06:48 10° NNE
Cosmos 332 Rocket 3.9 19:57:00 10° S 20:01:48 57° ESE 20:06:37 10° NNE
BREEZE-M DEB 4.1 20:00:16 10° SSE 20:01:50 14° SE 20:04:03 10° E
Intercosmos 24 3.7 19:58:22 10° N 20:01:59 90° ENE 20:05:45 10° S
STARLINK-1097 3.7 19:58:02 10° WNW 20:02:11 89° SW 20:06:21 10° ESE
Landsat 7 4.1 19:58:46 10° SSE 20:03:27 59° ENE 20:08:09 10° N
STARLINK-1224 3.6 19:59:25 10° WSW 20:03:32 71° SSE 20:07:41 10° ENE
MOS 1 Rocket 4.5 20:01:22 10° N 20:05:33 43° WNW 20:09:36 10° SW
STARLINK-1208 4.2 20:02:11 10° W 20:06:18 61° N 20:10:26 10° ENE
STARLINK-1099 3.6 20:03:00 10° WNW 20:07:10 85° SSW 20:11:19 10° ESE
Cosmos 1461 3.2 20:04:05 10° SSW 20:08:03 46° ESE 20:12:15 10° NE
STARLINK-1225 3.6 20:04:23 10° WSW 20:08:32 75° SSE 20:12:40 10° ENE
Okean 3 3.9 20:06:01 10° SSW 20:10:18 69° WNW 20:14:38 10° N
SAR-Lupe-2 4.1 20:07:06 10° NNE 20:10:33 40° E 20:13:57 10° S
STARLINK-1271 4.2 20:07:14 10° W 20:11:20 60° N 20:15:27 10° ENE
Cosmos 2369 Rocket 3.8 20:08:10 10° SE 20:11:33 16° E 20:14:57 10° ENE
STARLINK-1104 3.6 20:07:58 10° WNW 20:12:08 82° SSW 20:16:17 10° ESE
STARLINK-1212 3.9 20:10:25 10° WNW 20:13:27 46° N 20:16:28 10° ENE
STARLINK-1230 3.6 20:09:21 10° WSW 20:13:29 79° SSE 20:17:39 10° ENE
STARLINK-1105 3.9 20:10:53 10° WNW 20:13:55 46° N 20:16:56 10° ENE
NOSS 2-2 (C) 4.2 20:11:25 10° S 20:14:22 25° ESE 20:17:35 10° ENE
STARLINK-1247 3.9 20:11:46 10° WNW 20:14:48 46° N 20:17:50 10° E
STARLINK-1227 3.9 20:12:16 10° WNW 20:15:17 46° N 20:18:18 10° E
STARLINK-1226 3.9 20:13:07 10° WNW 20:16:09 46° N 20:19:11 10° E
STARLINK-1154 4.3 20:12:13 10° W 20:16:19 59° N 20:20:26 10° ENE
SL-4 R/B 3.8 20:15:01 10° WNW 20:16:48 15° WSW 20:18:30 10° SSW
STARLINK-1215 3.9 20:14:01 10° WNW 20:17:03 46° N 20:20:06 10° E
STARLINK-1144 3.6 20:12:57 10° WNW 20:17:07 78° SSW 20:21:15 10° ESE
Cosmos 2221 Rocket 4.2 20:13:43 10° SSW 20:18:12 63° WNW 20:22:45 10° N
STARLINK-1243 3.6 20:14:20 10° WSW 20:18:28 83° SSE 20:22:38 10° ENE
ATLAS 2AS CENTAUR R/B 4.4 20:14:02 10° SE 20:18:39 17° ESE 20:23:15 10° ENE
STARLINK-1217 3.9 20:15:51 10° WNW 20:18:53 47° N 20:21:55 10° E
NOSS 3-2 (A) 4.3 20:11:55 10° NW 20:19:11 68° NE 20:27:26 10° SE
SPOT 5 3.6 20:14:33 10° SE 20:19:35 48° ENE 20:24:44 10° N
STARLINK-1229 3.9 20:16:45 10° WNW 20:19:48 47° N 20:22:50 10° E
STARLINK-1270 3.9 20:17:39 10° WNW 20:20:41 47° N 20:23:44 10° E
STARLINK-1197 4.3 20:17:12 10° W 20:21:17 58° N 20:25:24 10° ENE
NOSS 8 (F) 4.0 20:18:24 10° SW 20:21:34 71° SE 20:24:37 10° NE
Meteor 1-13 Rocket 4.3 20:16:13 10° SSW 20:21:52 87° WNW 20:27:41 10° NNE
STARLINK-1103 3.6 20:17:56 10° WNW 20:22:05 74° SSW 20:26:12 10° ESE
STARLINK-1189 3.9 20:19:27 10° WNW 20:22:29 47° N 20:25:32 10° E
STARLINK-1188 3.9 20:20:22 10° WNW 20:23:24 47° N 20:26:27 10° E
STARLINK-1236 3.6 20:19:17 10° WSW 20:23:26 87° SSE 20:27:36 10° ENE
STARLINK-1187 3.8 20:21:28 10° WNW 20:24:29 48° N 20:27:30 10° E
ERS-1 Rocket 3.2 20:19:49 10° SSE 20:24:45 59° ENE 20:29:43 10° N
STARLINK-1191 3.8 20:22:49 10° WNW 20:25:50 47° N 20:28:51 10° E
STARLINK-1198 4.3 20:22:11 10° W 20:26:17 57° N 20:30:23 10° ENE
STARLINK-1221 3.8 20:23:46 10° WNW 20:26:48 47° N 20:29:49 10° E
STARLINK-1101 3.7 20:22:55 10° WNW 20:27:03 70° SSW 20:31:00 11° SE
STARLINK-1222 3.8 20:24:38 10° WNW 20:27:39 47° N 20:30:41 10° E
STARLINK-1214 3.8 20:25:31 10° WNW 20:28:33 48° N 20:31:35 10° E
Cosmos 1066 Rocket 4.2 20:24:14 10° S 20:29:30 61° E 20:34:47 10° NNE
USA 238 DEB 4.0 20:23:58 10° NW 20:31:08 74° NE 20:38:25 11° SE
USA 245 2.8 20:28:14 10° S 20:31:08 58° WSW 20:33:37 10° NNW
USA 238 4.0 20:24:04 10° NW 20:31:14 73° NE 20:38:32 11° SE
STARLINK-1199 4.3 20:27:13 10° W 20:31:18 57° N 20:35:24 10° ENE
STARLINK-1102 3.7 20:27:54 10° WNW 20:32:02 66° SSW 20:35:48 12° SE
STARLINK-1228 3.8 20:29:35 10° WNW 20:33:02 56° N 20:36:30 10° E
STARLINK-1269 3.7 20:29:15 10° WSW 20:33:25 86° NNW 20:37:35 10° ENE
Okean 1 Rocket 3.1 20:29:00 10° N 20:33:31 81° E 20:37:54 10° SSE
Cosmos 1805 3.6 20:29:56 10° N 20:33:47 50° ENE 20:37:07 13° SSE
Cosmos 2278 Rocket 3.4 20:29:08 10° SW 20:34:35 46° NW 20:40:04 10° NNE
TSX-5 4.2 20:29:10 10° SSW 20:34:40 79° ESE 20:38:55 10° NE
Resurs 01 Rocket 3.3 20:30:52 10° SSW 20:34:50 31° W 20:38:50 10° NNW
Nadezhda 4 Rocket 4.0 20:29:56 10° S 20:35:59 66° E 20:42:03 10° NNE
STARLINK-1210 4.3 20:32:12 10° W 20:36:18 56° N 20:40:23 10° ENE
STARLINK-1235 3.7 20:33:13 10° WNW 20:36:24 54° N 20:39:36 10° E
STARLINK-1111 3.8 20:32:53 10° WNW 20:36:59 62° SSW 20:40:34 13° SE
STARLINK-1200 3.7 20:34:13 10° WSW 20:38:22 83° NNW 20:42:32 10° ENE
Cosmos 1455 Rocket 4.2 20:35:09 10° N 20:39:01 30° ENE 20:42:18 13° SE
STARLINK-1219 4.3 20:37:11 10° W 20:41:17 56° N 20:45:22 10° ENE
STARLINK-1073 3.8 20:37:52 10° WNW 20:41:58 58° SSW 20:45:22 14° SE
SL-8 R/B 4.0 20:37:30 10° W 20:42:10 50° SSW 20:46:17 13° SE
STARLINK-1192 3.8 20:39:13 10° WSW 20:43:22 80° NNW 20:47:32 10° ENE
ATLAS CENTAUR R/B 3.5 20:44:45 10° NNW 20:45:37 12° N 20:46:29 10° NNE
STARLINK-1211 4.4 20:42:13 10° W 20:46:17 56° N 20:50:23 10° ENE
Cosmos 371 Rocket 4.4 20:41:41 10° SW 20:46:24 48° WNW 20:51:09 10° NNE
ATLAS 3B CENTAUR R/B 4.4 20:39:06 10° SW 20:46:45 18° SSW 20:50:57 12° SSE
STARLINK-1121 3.9 20:42:52 10° WNW 20:46:55 54° SSW 20:50:08 15° SE
SL-4 R/B 3.6 20:44:28 10° S 20:47:59 21° SE 20:51:34 10° E
STARLINK-1244 3.8 20:44:12 10° WSW 20:48:21 77° NNW 20:52:30 10° ENE
Terra 2.1 20:44:22 14° SSE 20:48:25 59° ENE 20:53:07 10° N
Cosmos 1110 Rocket 3.9 20:43:16 10° SSW 20:48:25 73° ESE 20:53:36 10° NNE
Spot 2 Rocket 4.2 20:44:52 10° S 20:49:45 49° W 20:54:40 10° NNW
Abrixas rocket 3.3 20:48:04 10° W 20:50:32 24° SSW 20:51:50 18° SSE
SPOT 1/Viking Rocket 3.8 20:45:26 10° S 20:50:34 66° WSW 20:55:43 10° NNW
STARLINK-1245 4.3 20:47:11 10° W 20:51:17 55° N 20:55:22 10° ENE
Cosmos 1842 4.3 20:48:51 16° SE 20:51:20 30° E 20:54:46 10° NNE
CARTOSAT-1 3.6 20:47:49 13° SSE 20:51:40 88° WSW 20:56:02 10° NNW
STARLINK-1106 4.0 20:47:52 10° WNW 20:51:54 51° SSW 20:54:56 17° SE
ERBS 4.3 20:49:39 10° W 20:52:40 31° NNW 20:55:42 10° NE
NOSS 8 (H) 4.0 20:49:38 10° SW 20:52:44 88° SE 20:55:50 10° NE
STARLINK-1138 3.9 20:49:12 10° WSW 20:53:21 74° NNW 20:57:30 10° ENE
STARLINK-1234 3.4 20:50:59 10° WNW 20:54:15 62° NNE 20:57:30 10° E
STARLINK-1233 4.3 20:52:10 10° WNW 20:56:16 55° N 21:00:20 10° E
STARLINK-1112 4.0 20:52:50 10° WNW 20:56:50 48° SSW 20:59:41 18° SE
STARLINK-1143 3.9 20:54:10 10° W 20:58:18 72° NNW 21:02:27 10° ENE
STARLINK-1209 3.3 20:56:57 10° WNW 21:00:15 67° NNE 21:03:27 11° E
STARLINK-1204 4.3 20:57:10 10° WNW 21:01:15 55° N 21:05:21 10° E
STARLINK-1128 4.1 20:57:49 10° WNW 21:01:48 45° SW 21:04:28 19° SSE
STARLINK-1241 4.0 20:59:12 10° W 21:03:20 69° NNW 21:07:29 10° ENE
SWAS 4.4 20:59:18 10° NNW 21:03:39 89° ENE 21:06:45 19° SSE
Cosmos 1331 Rocket 4.0 21:00:03 10° SSW 21:05:13 89° ESE 21:10:27 10° NNE
Aureole 2 Rocket 3.4 21:03:05 10° SW 21:06:01 40° WNW 21:08:50 10° N
STARLINK-1238 4.3 21:02:11 10° WNW 21:06:17 56° N 21:10:22 10° E
STARLINK-1113 4.2 21:02:50 10° WNW 21:06:45 42° SW 21:09:15 20° SSE
Cosmos 1733 3.1 21:03:05 10° N 21:06:56 79° E 21:09:32 19° SSE
STARLINK-1239 4.0 21:04:11 10° W 21:08:19 67° NNW 21:12:27 10° ENE
STARLINK-1201 4.3 21:07:10 10° WNW 21:11:16 56° N 21:15:21 10° E
STARLINK-1119 4.3 21:07:51 10° WNW 21:11:44 39° SW 21:14:04 20° SSE
COSMOS 2455 4.4 21:09:45 15° SE 21:11:53 17° ESE 21:15:40 10° ENE
Cosmos 1378 3.3 21:09:41 11° SSW 21:13:14 73° W 21:16:58 10° N
STARLINK-1240 4.1 21:09:10 10° W 21:13:17 65° NNW 21:17:25 10° ENE
Cosmos 1486 Rocket 4.2 21:09:04 10° NNW 21:14:23 69° ENE 21:18:13 19° SE
Cosmos 1302 Rocket 4.1 21:10:14 10° S 21:15:20 61° ESE 21:20:34 10° NNE
USA 215 3.8 21:09:09 10° E 21:15:34 58° NNE 21:21:58 10° WNW
Cosmos 1544 Rocket 4.0 21:11:42 10° N 21:15:56 49° ENE 21:18:39 20° SE
Cosmos 1271 Rocket 4.0 21:14:22 19° SE 21:16:03 26° E 21:19:20 10° NE
STARLINK-1206 4.3 21:12:11 10° WNW 21:16:17 57° N 21:20:22 10° E
STARLINK-1114 4.4 21:12:50 10° WNW 21:16:40 36° SW 21:18:49 21° SSE
Cosmos 1242 Rocket 3.4 21:15:26 22° SE 21:17:10 35° E 21:20:34 10° NNE
MTI 3.9 21:14:15 10° NNE 21:17:21 54° E 21:18:58 24° S
STARLINK-1203 4.1 21:14:00 10° W 21:18:11 64° NNW 21:22:22 10° ENE
STARLINK-1216 4.1 21:14:09 10° W 21:18:16 63° N 21:22:23 10° ENE
Lacrosse 5 4.2 21:17:03 10° WSW 21:18:33 11° WSW 21:20:03 10° SW
STARLINK-60 4.0 21:20:10 25° SE 21:20:10 25° SE 21:22:35 10° E
STARLINK-1205 4.3 21:17:10 10° WNW 21:21:15 57° N 21:25:21 10° E
Cosmos 1092 Rocket 4.0 21:15:30 11° S 21:21:30 88° E 21:27:42 10° N
NOSS 2-2 (D) 3.2 21:18:59 10° SW 21:22:34 82° NW 21:26:44 10° NE
STARLINK-1237 4.1 21:19:09 10° W 21:23:16 62° N 21:27:23 10° ENE
CENTAUR R/B 3.2 21:15:47 10° NW 21:23:43 84° NE 21:31:08 16° SE
Cosmos 1707 4.0 21:24:35 20° SE 21:26:09 27° E 21:29:28 10° NNE
STARLINK-1218 4.2 21:22:10 10° WNW 21:26:16 58° N 21:30:22 10° E
ATLAS 3B R/B 3.3 21:20:21 10° NW 21:26:57 53° NE 21:33:44 10° ESE
SL-27 R/B 2.5 21:23:59 10° NNW 21:27:36 77° WSW 21:29:28 26° SSE
STARLINK-1202 4.2 21:24:09 10° W 21:28:16 61° N 21:32:23 10° ENE
NOSS 3-2 (C) 4.1 21:21:31 10° NW 21:28:57 85° SW 21:35:37 18° SE
Cosmos 1766 4.1 21:26:02 10° NNW 21:29:51 45° W 21:32:47 16° SSW
Cosmos 1726 3.7 21:27:54 10° NNE 21:31:00 24° ENE 21:32:50 17° ESE
STARLINK-1254 4.2 21:27:09 10° WNW 21:31:16 59° N 21:35:22 10° E
ALOS 2 4.3 21:30:24 12° ESE 21:33:21 23° ENE 21:36:48 10° N
Cosmos 1867 3.8 21:28:28 10° NW 21:33:56 66° NE 21:38:07 17° SE
COSMOS 2487 4.0 21:32:08 10° N 21:35:07 26° ENE 21:37:03 16° ESE
STARLINK-1231 4.1 21:32:08 10° WNW 21:36:15 60° N 21:40:21 10° E
STARLINK-1246 4.2 21:34:10 10° W 21:38:16 58° N 21:42:22 10° ENE
Cosmos 1943 Rocket 2.2 21:33:02 10° SSW 21:38:36 89° NW 21:44:15 10° NNE
NOSS 2-2 (E) 4.2 21:36:24 10° WSW 21:39:58 50° NW 21:44:14 10° NE
NOSS 3-4 (A) 4.0 21:36:32 19° S 21:40:08 37° ESE 21:45:52 10° NE
NOSS 3-4 (C) 4.0 21:36:40 19° S 21:40:15 37° ESE 21:45:58 10° NE
STARLINK-1232 4.1 21:37:08 10° WNW 21:41:15 61° N 21:45:22 10° E
Cosmos 1428 Rocket 4.5 21:36:33 16° S 21:41:48 86° E 21:48:07 10° N
SeaSat 1 3.3 21:38:04 10° NE 21:42:31 32° ESE 21:44:34 23° SSE
EO 1 Del DPAF 3.9 21:39:34 10° NNE 21:43:08 37° E 21:44:29 27° SE
STARLINK-1224 4.3 21:39:09 10° W 21:43:15 58° N 21:47:21 10° ENE
STARLINK-1208 4.1 21:42:06 10° WNW 21:46:14 63° N 21:50:21 10° E
STARLINK-1225 4.3 21:44:10 10° W 21:48:16 57° N 21:52:22 10° ENE
Cosmos 1975 Rocket 3.5 21:44:36 14° SSW 21:48:16 60° WNW 21:52:39 10° N
STARLINK-1212 2.7 21:46:19 10° WNW 21:49:26 85° SSW 21:50:46 31° ESE
STARLINK-1105 2.7 21:46:48 10° WNW 21:49:54 85° SSW 21:51:13 32° ESE
STARLINK-1247 2.7 21:47:40 10° WNW 21:50:48 84° SSW 21:52:06 32° ESE
Meteor 2-10 4.2 21:45:48 10° N 21:50:48 58° ENE 21:53:43 24° SE
STARLINK-1271 4.0 21:47:07 10° WNW 21:51:15 64° NNE 21:55:22 10° E
STARLINK-1227 2.7 21:48:10 10° WNW 21:51:16 83° SSW 21:52:32 33° ESE
Cosmos 292 Rocket 3.7 21:48:20 18° SSW 21:51:52 77° ESE 21:56:45 10° NNE
BREEZE-M DEB (TANK) 3.4 21:38:44 10° WSW 21:51:56 74° SSE 21:55:33 10° E
STARLINK-1226 2.7 21:49:01 10° WNW 21:52:09 82° SSW 21:53:23 33° ESE
BREEZE-M DEB (TANK) 2.8 21:48:46 10° W 21:52:38 80° S 21:56:32 10° ESE
STARLINK-1215 2.7 21:49:55 10° WNW 21:53:03 81° SSW 21:54:16 33° ESE
STARLINK-1230 4.3 21:49:10 10° W 21:53:15 56° N 21:57:20 10° ENE
S3M 4.1 21:48:01 10° N 21:54:11 69° ENE 21:58:10 23° SSE
Cosmos 2369 Rocket 2.2 21:49:06 10° SSW 21:54:47 89° ESE 22:00:28 10° NNE
STARLINK-1217 2.7 21:51:44 10° WNW 21:54:51 80° SSW 21:56:00 35° ESE
STARLINK-1229 2.7 21:52:38 10° WNW 21:55:46 79° SSW 21:56:54 36° ESE
STARLINK-1154 4.0 21:52:06 10° WNW 21:56:14 66° NNE 22:00:22 10° E
STARLINK-1270 2.7 21:53:32 10° WNW 21:56:40 78° SSW 21:57:45 37° SE
Aureole 3 Rocket 4.4 21:51:44 10° NNW 21:57:50 80° W 22:03:53 20° S
STARLINK-1243 4.3 21:54:10 10° W 21:58:16 56° N 22:02:21 10° ENE
STARLINK-1189 2.7 21:55:20 10° WNW 21:58:27 76° SSW 21:59:29 39° SE
STARLINK-1188 2.7 21:56:14 10° WNW 21:59:22 75° SSW 22:00:22 39° SE
STARLINK-1187 2.7 21:57:21 10° WNW 22:00:26 67° SSW 22:01:14 44° SE
ATLAS CENTAUR R/B 2.2 21:59:35 29° SSE 22:00:37 33° ESE 22:04:20 10° ENE
Cosmos 1340 Rocket 3.4 21:56:41 10° N 22:00:40 49° ENE 22:02:31 28° SE
STARLINK-1197 3.9 21:57:04 10° WNW 22:01:12 68° NNE 22:05:20 10° E
STARLINK-1191 2.7 21:58:41 10° WNW 22:01:47 72° SSW 22:02:39 43° SE
Aureole 3 4.0 21:59:35 10° N 22:02:30 29° ENE 22:03:24 24° ESE
STARLINK-1221 2.7 21:59:39 10° WNW 22:02:44 71° SSW 22:03:34 43° SE
STARLINK-1236 4.3 21:59:09 10° W 22:03:14 56° N 22:07:20 10° ENE
STARLINK-1222 2.7 22:00:29 10° WNW 22:03:35 70° SSW 22:04:23 44° SE
Thor Agena Rocket 3.6 21:58:40 10° NNE 22:03:59 70° ESE 22:07:12 24° S
STARLINK-1214 2.7 22:01:23 10° WNW 22:04:29 69° SSW 22:05:15 45° SE
Cosmos 1025 Rocket 2.9 22:02:57 29° S 22:05:05 74° E 22:09:25 10° NNE
EXPRESS MD2 4.1 22:01:55 10° W 22:06:01 86° S 22:14:44 10° E
Cosmos 2026 Rocket 4.4 22:00:23 13° SSW 22:06:04 62° WNW 22:12:24 10° N
STARLINK-1198 3.8 22:02:03 10° WNW 22:06:11 71° NNE 22:10:20 10° E
Cosmos 1553 Rocket 4.1 22:01:23 10° NNW 22:07:40 75° W 22:11:43 23° S
BREEZE M DEB (TANK) 1.5 22:05:13 10° W 22:08:13 76° S 22:08:33 58° ESE
ATLAS 2AS CENTAUR R/B 3.1 22:00:30 10° SSW 22:08:17 64° SE 22:16:06 10° NE
Cosmos 1656 Rocket 3.7 22:04:50 22° S 22:08:25 62° ESE 22:13:55 10° NE
Cosmos 1953 2.3 22:05:02 10° N 22:09:01 70° ENE 22:10:41 33° SSE
BREEZE-M DEB (TANK) 4.3 21:57:05 10° WNW 22:09:38 54° SW 22:11:56 27° SSE
Cosmos 1470 3.3 22:06:18 10° NNW 22:10:04 50° W 22:11:51 27° SSW
STARLINK-1228 3.3 22:06:52 10° WNW 22:10:18 54° SSW 22:11:08 41° SSE
STARLINK-1199 3.8 22:07:03 10° WNW 22:11:12 73° NNE 22:15:21 10° ESE
STARLINK-1235 3.1 22:09:36 10° WNW 22:12:45 52° SSW 22:13:12 47° S
APEX 4.2 22:06:47 11° SSW 22:12:59 90° WNW 22:18:14 10° NNE
STARLINK-1269 4.3 22:09:10 10° W 22:13:15 55° N 22:17:20 10° E
Cosmos 2292 Rocket 3.7 22:13:24 32° SE 22:14:17 38° E 22:17:17 10° NNE
Cosmos 968 Rocket 3.9 22:09:51 10° NNW 22:14:51 51° WSW 22:17:31 25° S
STARLINK-1210 3.7 22:12:01 10° WNW 22:16:10 76° NNE 22:20:07 11° ESE
Cosmos 1455 Rocket 4.4 22:13:00 10° NNW 22:16:50 31° W 22:19:25 17° SW
STARLINK-1200 4.3 22:14:08 10° WNW 22:18:13 55° N 22:22:19 10° E
Cosmos 1655 Rocket 4.0 22:15:01 24° S 22:19:01 81° E 22:25:19 10° NNE
SL-4 R/B 1.4 22:20:18 42° NE 22:20:18 42° NE 22:22:09 10° N
STARLINK-1219 3.7 22:16:59 10° WNW 22:21:09 78° NNE 22:24:52 13° ESE
ATLAS 5 CENTAUR R/B 1.5 22:21:46 34° SSW 22:22:49 50° SE 22:25:02 10° ENE
STARLINK-1192 4.3 22:19:09 10° WNW 22:23:14 56° N 22:27:20 10° E
Cosmos 1758 4.1 22:19:41 10° NNW 22:23:33 43° W 22:25:25 26° SSW
STARLINK-52 4.1 22:26:28 29° ESE 22:26:28 29° ESE 22:28:28 10° ENE
STARLINK-1211 3.6 22:21:59 10° WNW 22:26:09 81° NNE 22:29:40 14° ESE
Terra 3.8 22:23:15 11° SW 22:26:33 20° W 22:30:03 10° NW
Cosmos 2228 3.7 22:22:39 10° N 22:26:44 44° ENE 22:28:36 27° SE
SL-4 R/B 2.3 22:22:22 10° SW 22:27:08 65° SSE 22:31:56 10° ENE
Cosmos 1726 Rocket 4.5 22:23:25 10° N 22:27:29 38° ENE 22:29:31 24° SE
Meteor 2-15 4.5 22:21:22 10° N 22:27:32 76° ENE 22:31:06 27° SSE
STARLINK-1244 4.3 22:24:08 10° WNW 22:28:13 56° N 22:32:19 10° E
STARLINK-1234 3.7 22:27:24 10° WNW 22:30:16 37° SW 22:30:16 37° SW
STARLINK-1245 3.6 22:26:57 10° WNW 22:31:08 85° NNE 22:34:26 16° ESE
In-Cosmos 22 4.0 22:30:05 29° S 22:32:50 73° E 22:38:07 10° NNE
STARLINK-1138 4.3 22:29:08 10° WNW 22:33:13 56° N 22:37:19 10° E
STARLINK-1233 3.5 22:31:55 10° WNW 22:36:05 88° NNE 22:39:12 17° ESE
STARLINK-1209 4.0 22:33:37 10° W 22:36:13 31° SW 22:36:13 31° SW
Cosmos 2266 Rocket 3.9 22:33:43 26° S 22:37:17 82° E 22:43:21 10° N
STARLINK-1143 4.3 22:34:06 10° WNW 22:38:12 57° N 22:42:19 10° E
STARLINK-1204 3.5 22:36:54 10° WNW 22:41:05 88° S 22:43:59 19° ESE
SJ 16-02 3.7 22:39:43 10° N 22:42:54 19° NE 22:46:06 10° E
STARLINK-1241 4.2 22:39:08 10° WNW 22:43:15 58° N 22:47:20 10° E
STARLINK-1238 3.5 22:41:55 10° WNW 22:46:05 84° SSW 22:48:47 21° ESE
Meteor 2-15 Rocket 4.4 22:41:17 10° N 22:47:28 85° E 22:50:55 28° SSE
Cosmos 1536 Rocket 4.2 22:45:44 23° SW 22:48:08 48° WNW 22:52:23 10° N
STARLINK-1239 4.2 22:44:07 10° WNW 22:48:14 59° N 22:52:20 10° E
Helios 1B rocket 4.3 22:46:02 10° NE 22:48:55 18° E 22:50:09 16° ESE
Cosmos 1674 2.7 22:48:20 43° SSE 22:49:23 66° E 22:53:10 10° NNE
STARLINK-1201 3.5 22:46:53 10° WNW 22:51:02 80° SSW 22:53:33 23° ESE
Cosmos 1271 Rocket 4.3 22:49:29 16° WSW 22:51:57 30° WNW 22:55:28 10° N
STARLINK-1240 4.2 22:49:05 10° WNW 22:53:12 60° N 22:57:19 10° E
STARLINK-60 3.0 22:52:34 10° WSW 22:55:45 76° NNW 22:58:57 10° ENE
STARLINK-1206 3.5 22:51:53 10° WNW 22:56:01 77° SSW 22:58:21 25° ESE
COSMOS 2455 2.8 22:52:50 21° SSW 22:56:57 84° SE 23:03:01 10° NE
Cosmos 2219 3.9 22:52:10 10° NNW 22:57:42 49° NE 23:02:18 14° SE
STARLINK-1216 4.1 22:54:04 10° WNW 22:58:11 61° N 23:02:18 10° E
STARLINK-1203 4.1 22:54:09 10° WNW 22:58:20 62° N 23:02:30 10° E
USA 215 3.2 22:52:56 15° SE 22:58:31 74° SW 23:05:05 10° WNW
STARLINK-1205 3.5 22:56:51 10° WNW 23:00:59 73° SSW 23:03:07 27° SE
Cosmos 2297 Rocket 3.1 22:56:30 10° NNW 23:01:57 45° NE 23:07:00 12° ESE
Cosmos 1707 4.3 22:59:44 17° WSW 23:01:58 28° WNW 23:05:23 10° N
STARLINK-1237 4.1 22:59:04 10° WNW 23:03:11 62° N 23:07:19 10° E
Helios 1A 2.9 23:01:35 37° SSE 23:03:12 87° ENE 23:07:26 10° NNW
Lacrosse 4 Rocket 3.8 23:02:04 10° NNW 23:05:29 22° NE 23:08:49 10° E
STARLINK-1218 3.5 23:01:51 10° WNW 23:05:58 69° SSW 23:07:55 30° SE
Cosmos 1726 3.5 23:02:57 10° NNW 23:06:13 29° W 23:07:20 24° WSW
STARLINK-1368 4.4 23:08:27 30° SE 23:08:27 30° SE 23:11:17 10° E
Cosmos 1174 3.7 23:06:36 33° WSW 23:07:58 67° NW 23:11:52 10° NE
STARLINK-1202 4.0 23:04:03 10° WNW 23:08:11 64° NNE 23:12:19 10° E
Timation 2 Rocket 3.9 23:03:03 10° NNW 23:09:24 79° WSW 23:12:55 27° SSE
ALOS 2 3.1 23:07:47 32° SSW 23:09:24 48° W 23:13:41 10° NNW
Cosmos 2058 Rocket 3.3 23:05:37 10° N 23:10:03 66° ENE 23:11:58 33° SSE
COSMOS 2487 3.8 23:07:12 10° NW 23:10:07 26° WSW 23:10:32 25° WSW
STARLINK-1254 3.5 23:06:50 10° WNW 23:10:57 65° SSW 23:12:41 32° SE
STARLINK-1369 4.2 23:11:47 32° SE 23:11:47 32° SE 23:14:47 10° ENE
CENTAUR R/B 4.1 23:07:01 10° NW 23:14:02 33° WSW 23:18:17 22° SSW
STARLINK-1372 4.1 23:15:07 35° SE 23:15:07 35° SE 23:18:18 10° ENE
STARLINK-1231 3.6 23:11:48 10° WNW 23:15:53 61° SSW 23:17:27 35° SE
Meteor 2-5 Rocket 3.7 23:14:12 31° S 23:17:00 78° E 23:22:39 10° NNE
ATLAS 3B R/B 3.0 23:11:11 10° NW 23:17:40 49° WSW 23:21:09 27° S
STARLINK-1246 3.9 23:14:02 10° WNW 23:18:11 68° NNE 23:22:19 10° E
STARLINK-1378 4.0 23:18:28 37° SE 23:18:28 37° SE 23:21:49 10° ENE
Cosmos 1606 Rocket 3.9 23:15:50 10° NNW 23:20:03 53° W 23:21:36 34° SSW
SeaSat 1 3.3 23:15:26 10° NNE 23:20:10 47° NW 23:24:20 13° WSW
SL-14 R/B 3.6 23:19:11 38° SSE 23:20:17 53° E 23:24:03 10° NNE
FALCON 9 DEB 3.0 23:20:07 51° SSW 23:20:47 68° SSE 23:24:13 10° ENE
STARLINK-1232 3.6 23:16:48 10° WNW 23:20:52 57° SSW 23:22:15 37° SSE
STARLINK-1379 3.9 23:21:51 39° SE 23:21:51 39° SE 23:25:21 10° ENE
Cosmos 1943 Rocket 4.4 23:18:50 10° W 23:23:09 22° NW 23:27:31 10° NNE
STARLINK-1224 3.9 23:19:01 10° WNW 23:23:09 70° NNE 23:27:18 10° E
STARLINK-1329 3.8 23:23:14 40° SE 23:23:14 40° SE 23:26:49 10° ENE
Meteor 2-21 4.5 23:20:59 29° S 23:24:21 78° E 23:30:35 10° NNE
STARLINK-29 2.9 23:24:02 27° WSW 23:25:38 80° NNW 23:28:52 10° ENE
STARLINK-1208 3.7 23:21:46 10° WNW 23:25:49 54° SSW 23:27:00 39° SSE
SL-16 R/B 4.3 23:21:44 10° ESE 23:26:45 27° NE 23:31:47 10° N
STARLINK-1362 3.7 23:26:40 42° SSE 23:26:48 42° SSE 23:30:25 10° ENE
ATLAS CENTAUR R/B 1.3 23:25:57 10° NW 23:28:05 65° NNE 23:32:04 10° ESE
STARLINK-1225 3.8 23:24:00 10° WNW 23:28:10 72° NNE 23:32:19 10° E
STARLINK-1373 3.7 23:30:05 44° SSE 23:30:21 45° SSE 23:34:01 10° ENE
NOSS 3-4 (A) 4.0 23:24:51 10° WSW 23:30:47 58° NW 23:37:13 10° NE
STARLINK-1271 3.8 23:26:47 10° WNW 23:30:49 50° SSW 23:31:49 40° SSE
NOSS 3-4 (C) 4.0 23:24:56 10° WSW 23:30:52 58° NW 23:37:20 10° NE
RESURS DK-1 2.3 23:29:48 35° SW 23:31:29 84° WNW 23:35:39 10° NNE
STARLINK-1365 3.6 23:31:12 45° SSE 23:31:35 47° SSE 23:35:17 10° ENE
STARLINK-1230 3.8 23:28:59 10° WNW 23:33:08 75° NNE 23:37:17 10° ESE
STARLINK-1390 3.6 23:33:34 45° SSE 23:33:57 47° SSE 23:37:39 10° ENE
Cosmos 1697 Rocket 4.4 23:32:47 15° SE 23:35:25 20° E 23:39:27 10° NE
Cosmos 2084 3.4 23:33:37 33° SSW 23:35:33 78° SE 23:40:02 10° NE
STARLINK-1154 3.8 23:31:47 10° WNW 23:35:46 47° SSW 23:36:36 40° S
BREEZE-M R/B 3.7 23:31:44 16° SW 23:36:49 44° SSE 23:40:24 10° E
Cosmos 1626 2.0 23:36:00 46° S 23:37:03 86° E 23:40:48 10° N
STARLINK-1243 3.7 23:33:59 10° WNW 23:38:08 77° NNE 23:42:18 10° ESE
Cosmos 2227 Rocket 2.5 23:33:17 10° NNW 23:38:58 68° ENE 23:43:29 16° SE
ATLAS CENTAUR R/B 2.5 23:35:43 12° WSW 23:39:28 41° NW 23:43:19 10° NNE
Okean 1-7 Rocket 3.6 23:37:39 35° SSW 23:39:31 84° W 23:44:05 10° N
Cosmos 2369 Rocket 4.3 23:35:08 10° W 23:39:35 23° NW 23:44:02 10° NNE
STARLINK-1197 3.9 23:36:45 10° WNW 23:40:42 44° SW 23:41:21 40° S
CZ-4 R/B 3.9 23:36:59 10° NNE 23:41:46 66° ESE 23:43:50 33° S
STARLINK-1236 3.7 23:38:57 10° WNW 23:43:07 80° NNE 23:47:16 10° ESE
STARLINK-1198 4.0 23:41:45 10° WNW 23:45:40 41° SW 23:46:07 39° SSW
Cosmos 1602 Rocket 4.3 23:47:23 27° SE 23:49:14 43° E 23:53:20 10° NNE
Landsat 4 4.1 23:46:00 10° N 23:49:38 52° WNW 23:51:00 33° SW
STARLINK-1199 4.1 23:46:46 10° WNW 23:50:38 38° SW 23:50:56 38° SSW
STARLINK-1269 3.6 23:48:55 10° WNW 23:53:05 87° NNE 23:57:15 10° ESE
Meteor 2-21 Rocket 4.4 23:50:06 28° SSW 23:53:36 84° W 23:59:51 10° N
STARLINK-1210 4.2 23:51:46 10° WNW 23:55:35 36° SW 23:55:41 36° SSW
